This is the latest recevied weather packets stored in our database for station/object DB8NZ-11. If no packets are shown the sender has not sent any weather packets the latest 10 day(s).
| Time | Temp. | Humidity | Pressure | Rain* | Wind** | Luminosity | Snow |
|---|---|---|---|---|---|---|---|
| 1777507269 | 5° C | 48% | 1033.7 hPa | - | - | - | - |
| 1777506369 | 5° C | 47% | 1033.5 hPa | - | - | - | - |
| 1777505469 | 5.56° C | 46% | 1033.3 hPa | - | - | - | - |
| 1777504568 | 6.11° C | 46% | 1033.1 hPa | - | - | - | - |
| 1777503668 | 6.11° C | 44% | 1033.1 hPa | - | - | - | - |
| 1777503173 | 6.67° C | 44% | 1033 hPa | - | - | - | - |
| 1777502273 | 6.67° C | 42% | 1032.9 hPa | - | - | - | - |
| 1777501373 | 7.22° C | 43% | 1032.7 hPa | - | - | - | - |
| 1777500473 | 7.78° C | 42% | 1032.5 hPa | - | - | - | - |
| 1777499572 | 8.33° C | 39% | 1032.4 hPa | - | - | - | - |
| 1777498672 | 8.89° C | 35% | 1032.2 hPa | - | - | - | - |
| 1777497772 | 9.44° C | 34% | 1032.1 hPa | - | - | - | - |
| 1777496872 | 10° C | 33% | 1032 hPa | - | - | - | - |
| 1777495972 | 10.56° C | 32% | 1031.7 hPa | - | - | - | - |
| 1777495072 | 10.56° C | 32% | 1031.6 hPa | - | - | - | - |
| 1777494172 | 11.11° C | 31% | 1031.3 hPa | - | - | - | - |
| 1777493272 | 11.67° C | 32% | 1031.3 hPa | - | - | - | - |
| 1777492372 | 11.67° C | 30% | 1031.1 hPa | - | - | - | - |
| 1777491472 | 12.22° C | 30% | 1030.8 hPa | - | - | - | - |
| 1777490572 | 12.78° C | 29% | 1030.7 hPa | - | - | - | - |
| 1777489672 | 12.78° C | 31% | 1030.3 hPa | - | - | - | - |
| 1777488771 | 13.33° C | 29% | 1030.1 hPa | - | - | - | - |
| 1777487871 | 13.89° C | 28% | 1029.7 hPa | - | - | - | - |
| 1777486971 | 14.44° C | 27% | 1029.5 hPa | - | - | - | - |
| 1777486071 | 15° C | 26% | 1029.1 hPa | - | - | - | - |
* Rain since midnight (hover to see other rain measurements)
** Current wind speed in m/s (hover to see current wind gust speed)